Погода в Факфаке

Индонезия     2°55′51″S   132°18′17″E
темп.,
°C
ветер,
м/с
пор.,
м/с
влажн.,
%
обл.,
%
осадки,
мм/ч
давл.,
гПа
погр.,
м
2 марта, вт
вт200:00+26ссз347957 0.6 1010313
03:00+25ссз348378 1.7 1009268
06:00+25сз2379100 0.7 1010292
09:00+26зсз4581100 3.3 1012480
12:00+27зсз5778100 2.8 1010729
15:00+26зсз7983100 4.2 1009854
18:00+25сз61085100 1.7 1010759
21:00+25ссз51082100 2.0 1012678
3 марта, ср
ср300:00+25ссз5981100 0.0 1012776
03:00+25ссз4780100 0.1 1010606
06:00+25с3480100 0.0 1010437
09:00+27ссв1371100 0.0 1012566
12:00+28юз2367100 0.1 1010738
15:00+28з456998 0.5 1008778
18:00+27зсз357385 0.4 1009467
21:00+26сз347784 0.4 1011331
4 марта, чт
чт400:00+26с2377100 0.0 1011268
03:00+25с2379100 0.0 1009144
06:00+26с227899 0.1 1010157
09:00+28зсз137376 1.0 1012566
12:00+28з347763 4.8 1010565
15:00+28зсз347756 7.8 1008660
18:00+27зсз347743 1.2 1008492
21:00+26ссз237946 1.7 1011185
5 марта, пт
пт500:00+26с2378100 0.0 1011132
03:00+26ссз247786 0.1 1009257
06:00+26ссз347679 0.0 1010332
09:00+28сз246759 0.1 1011757
12:00+30зюз44641 0.1 1010909
15:00+29з456318 0.3 1007802
18:00+28зсз3573100 0.1 1008472
21:00+26ссз3475100 0.1 1010340
6 марта, сб
сб600:00+26ссз2475100 0.0 1010269
03:00+26ссз3579100 0.1 1008353
06:00+26с3479100 0.2 1009350
09:00+27зсз2475100 0.4 1011585
12:00+29зюз456999 0.3 1009723
15:00+29з4571100 0.7 1007798
18:00+27зсз3577100 2.9 1008398
21:00+27сз3577100 3.4 1010417